JAL2016 RJCC-RJOO

Flight info

Callsign JAL2016
Flight time 1h 48m
Altitude 34000
Route DALBI Y120 TAPPI Y12 ARIKA Y14 GOLDO Y381 KMC Y384 ROKKO KAMEO OTABE ABENO IKOMA
Aircraft B738/M-SDE2E3FGHIRWXY/LB1

Departure

Time 2026-04-29 12:45
Airport New Chitose Airport (RJCC)

Arrival

Time 2026-04-29 14:33
Airport Osaka Itami International Airport (RJOO)
Time Latitude Longitude Altitude Speed Heading
2026-04-29 12:27 42.79033 141.67745 67 ft 0 kts 173°
2026-04-29 12:28 42.79038 141.67745 67 ft 0 kts 173°
2026-04-29 12:39 42.79050 141.67743 62 ft 4 kts 171°
2026-04-29 12:39 42.79077 141.67735 67 ft 4 kts 164°
2026-04-29 12:39 42.79102 141.67722 59 ft 4 kts 149°
2026-04-29 12:40 42.79119 141.67700 67 ft 4 kts 103°
2026-04-29 12:40 42.79120 141.67689 67 ft 1 kts 83°
2026-04-29 12:42 42.79127 141.67769 64 ft 17 kts 84°
2026-04-29 12:43 42.79124 141.67973 59 ft 23 kts 100°
2026-04-29 12:43 42.79066 141.68168 64 ft 22 kts 122°
2026-04-29 12:43 42.78960 141.68317 65 ft 22 kts 143°
2026-04-29 12:43 42.78903 141.68470 60 ft 15 kts 85°
2026-04-29 12:44 42.78932 141.68591 67 ft 10 kts 72°
2026-04-29 12:44 42.78941 141.68655 67 ft 6 kts 81°
2026-04-29 12:44 42.78938 141.68693 63 ft 6 kts 115°
2026-04-29 12:44 42.78901 141.68743 67 ft 10 kts 136°
2026-04-29 12:45 42.78745 141.68826 60 ft 41 kts 171°
2026-04-29 12:45 42.78416 141.68890 62 ft 98 kts 172°
2026-04-29 12:45 42.77511 141.69070 85 ft 163 kts 169°
2026-04-29 12:45 42.76362 141.69409 777 ft 172 kts 164°
2026-04-29 12:46 42.75207 141.69476 1711 ft 169 kts 192°
2026-04-29 12:46 42.73947 141.69205 2184 ft 197 kts 182°
2026-04-29 12:46 42.72493 141.69241 2409 ft 218 kts 178°
2026-04-29 12:46 42.70952 141.69384 2820 ft 231 kts 178°
2026-04-29 12:47 42.69269 141.69551 3120 ft 252 kts 179°
2026-04-29 12:47 42.67470 141.69724 3670 ft 263 kts 179°
2026-04-29 12:47 42.65614 141.69899 4392 ft 266 kts 179°
2026-04-29 12:47 42.63766 141.70070 5100 ft 270 kts 180°
2026-04-29 12:48 42.61888 141.70236 5776 ft 274 kts 180°
2026-04-29 12:48 42.59961 141.70404 6425 ft 278 kts 180°
2026-04-29 12:48 42.58004 141.70571 7114 ft 281 kts 180°
2026-04-29 12:48 42.56058 141.70735 7776 ft 285 kts 180°
2026-04-29 12:49 42.54077 141.70901 8434 ft 288 kts 180°
2026-04-29 12:49 42.52052 141.71070 9082 ft 292 kts 180°
2026-04-29 12:49 42.50006 141.71240 9744 ft 294 kts 180°
2026-04-29 12:49 42.47960 141.71410 10342 ft 299 kts 180°
2026-04-29 12:50 42.45827 141.71582 10523 ft 320 kts 180°
2026-04-29 12:50 42.43529 141.71767 10689 ft 339 kts 179°
2026-04-29 12:50 42.41086 141.71966 10846 ft 358 kts 179°
2026-04-29 12:50 42.38564 141.72173 11022 ft 374 kts 179°
2026-04-29 12:51 42.35915 141.72391 11453 ft 382 kts 179°
2026-04-29 12:51 42.33242 141.72615 12064 ft 384 kts 179°
2026-04-29 12:51 42.30600 141.72835 12715 ft 384 kts 179°
2026-04-29 12:51 42.27937 141.73056 13291 ft 387 kts 179°
2026-04-29 12:52 42.25221 141.73280 13870 ft 391 kts 179°
2026-04-29 12:52 42.22486 141.73505 14464 ft 394 kts 179°
2026-04-29 12:52 42.19753 141.73728 15056 ft 397 kts 180°
2026-04-29 12:52 42.16972 141.73954 15646 ft 399 kts 180°
2026-04-29 12:53 42.14203 141.74179 16222 ft 402 kts 180°
2026-04-29 12:53 42.11389 141.74409 16786 ft 405 kts 180°
2026-04-29 12:53 42.08557 141.74639 17324 ft 408 kts 180°
2026-04-29 12:53 42.05740 141.74868 17859 ft 410 kts 180°
2026-04-29 12:54 42.02862 141.75102 18365 ft 414 kts 180°
2026-04-29 12:54 42.00001 141.75335 18851 ft 417 kts 181°
2026-04-29 12:54 41.97077 141.75573 19335 ft 420 kts 181°
2026-04-29 12:54 41.94182 141.75807 19804 ft 423 kts 181°
2026-04-29 12:55 41.91226 141.75964 20240 ft 423 kts 186°
2026-04-29 12:55 41.88320 141.75669 20676 ft 422 kts 191°
2026-04-29 12:55 41.85369 141.75234 21131 ft 424 kts 192°
2026-04-29 12:55 41.82454 141.74778 21560 ft 426 kts 193°
2026-04-29 12:56 41.79482 141.74315 21951 ft 429 kts 193°
2026-04-29 12:56 41.76494 141.73859 22316 ft 433 kts 193°
2026-04-29 12:56 41.73524 141.73420 22701 ft 435 kts 193°
2026-04-29 12:56 41.70490 141.72984 23107 ft 437 kts 193°
2026-04-29 12:57 41.67449 141.72553 23487 ft 439 kts 193°
2026-04-29 12:57 41.64423 141.72127 23831 ft 442 kts 193°
2026-04-29 12:57 41.61334 141.71693 24168 ft 444 kts 193°
2026-04-29 12:57 41.58281 141.71268 24480 ft 446 kts 194°
2026-04-29 12:58 41.55166 141.70832 24776 ft 448 kts 194°
2026-04-29 12:58 41.52080 141.70401 25084 ft 450 kts 194°
2026-04-29 12:58 41.48931 141.69961 25428 ft 451 kts 194°
2026-04-29 12:58 41.45812 141.69528 25766 ft 452 kts 195°
2026-04-29 12:59 41.42714 141.69097 26038 ft 454 kts 195°
2026-04-29 12:59 41.39545 141.68655 26306 ft 456 kts 195°
2026-04-29 12:59 41.36366 141.68213 26581 ft 458 kts 196°
2026-04-29 12:59 41.33214 141.67775 26847 ft 460 kts 196°
2026-04-29 13:00 41.30010 141.67330 27108 ft 461 kts 196°
2026-04-29 13:00 41.26847 141.66890 27423 ft 461 kts 197°
2026-04-29 13:00 41.23647 141.66455 27773 ft 458 kts 197°
2026-04-29 13:00 41.20504 141.66020 28095 ft 458 kts 198°
2026-04-29 13:01 41.17342 141.65583 28547 ft 453 kts 198°
2026-04-29 13:01 41.14198 141.65151 28916 ft 452 kts 199°
2026-04-29 13:01 41.11102 141.64732 29248 ft 451 kts 199°
2026-04-29 13:01 41.07962 141.64292 29561 ft 450 kts 200°
2026-04-29 13:02 41.04844 141.63852 29908 ft 450 kts 200°
2026-04-29 13:02 41.01779 141.63444 30305 ft 447 kts 200°
2026-04-29 13:02 40.98671 141.63017 30653 ft 446 kts 201°
2026-04-29 13:02 40.95615 141.62596 30918 ft 446 kts 201°
2026-04-29 13:03 40.92505 141.62165 31105 ft 448 kts 201°
2026-04-29 13:03 40.89406 141.61736 31360 ft 447 kts 201°
2026-04-29 13:03 40.86340 141.61321 31681 ft 445 kts 201°
2026-04-29 13:03 40.83257 141.60912 32017 ft 443 kts 201°
2026-04-29 13:04 40.80220 141.60503 32288 ft 442 kts 202°
2026-04-29 13:04 40.77151 141.60084 32536 ft 442 kts 202°
2026-04-29 13:04 40.74079 141.59659 32784 ft 441 kts 202°
2026-04-29 13:04 40.71052 141.59242 33062 ft 440 kts 202°
2026-04-29 13:05 40.67982 141.58821 33271 ft 441 kts 202°
2026-04-29 13:05 40.64928 141.58402 33551 ft 439 kts 202°
2026-04-29 13:05 40.61934 141.58000 33948 ft 435 kts 202°
2026-04-29 13:05 40.58903 141.57590 34172 ft 435 kts 202°
2026-04-29 13:06 40.55906 141.57181 34327 ft 436 kts 203°
2026-04-29 13:06 40.52878 141.56768 34544 ft 436 kts 203°
2026-04-29 13:06 40.49881 141.56362 34802 ft 434 kts 203°
2026-04-29 13:06 40.46887 141.55960 35024 ft 434 kts 203°
2026-04-29 13:07 40.43861 141.55551 35220 ft 434 kts 203°
2026-04-29 13:07 40.40898 141.55154 35585 ft 429 kts 203°
2026-04-29 13:07 40.37937 141.54758 35842 ft 428 kts 203°
2026-04-29 13:07 40.34954 141.54352 35974 ft 429 kts 203°
2026-04-29 13:08 40.31998 141.53947 36065 ft 428 kts 203°
2026-04-29 13:08 40.26085 141.53151 36104 ft 428 kts 203°
2026-04-29 13:09 40.20148 141.52347 36114 ft 431 kts 203°
2026-04-29 13:09 40.14165 141.51542 36121 ft 434 kts 203°
2026-04-29 13:10 40.08156 141.50739 36113 ft 436 kts 203°
2026-04-29 13:10 40.02123 141.49939 36118 ft 435 kts 203°
2026-04-29 13:11 39.96107 141.49141 36114 ft 433 kts 204°
2026-04-29 13:11 39.90136 141.48352 36110 ft 429 kts 204°
2026-04-29 13:12 39.84210 141.47565 36137 ft 427 kts 204°
2026-04-29 13:12 39.78311 141.46777 36119 ft 426 kts 204°
2026-04-29 13:13 39.72426 141.45996 36126 ft 425 kts 204°
2026-04-29 13:13 39.66555 141.45220 36122 ft 425 kts 204°
2026-04-29 13:14 39.60662 141.44443 36143 ft 424 kts 204°
2026-04-29 13:14 39.54819 141.43674 36123 ft 421 kts 204°
2026-04-29 13:15 39.48987 141.42903 36127 ft 423 kts 204°
2026-04-29 13:15 39.43121 141.42132 36145 ft 423 kts 204°
2026-04-29 13:16 39.37344 141.41193 36136 ft 420 kts 205°
2026-04-29 13:16 39.31520 141.40125 36146 ft 421 kts 205°
2026-04-29 13:17 39.25748 141.39080 36152 ft 422 kts 205°
2026-04-29 13:17 39.19925 141.38046 36152 ft 423 kts 205°
2026-04-29 13:18 39.14091 141.37027 36146 ft 423 kts 205°
2026-04-29 13:18 39.08264 141.36009 36133 ft 424 kts 205°
2026-04-29 13:19 39.02425 141.34993 36149 ft 423 kts 205°
2026-04-29 13:19 38.96593 141.33979 36155 ft 423 kts 204°
2026-04-29 13:20 38.90766 141.32968 36150 ft 421 kts 204°
2026-04-29 13:20 38.84977 141.31966 36161 ft 419 kts 205°
2026-04-29 13:21 38.79203 141.30964 36146 ft 418 kts 204°
2026-04-29 13:21 38.73437 141.29966 36156 ft 418 kts 205°
2026-04-29 13:22 38.67659 141.28964 36163 ft 419 kts 204°
2026-04-29 13:22 38.61889 141.27967 36155 ft 420 kts 204°
2026-04-29 13:23 38.56095 141.26972 36163 ft 421 kts 204°
2026-04-29 13:23 38.50272 141.25971 36151 ft 422 kts 204°
2026-04-29 13:24 38.44455 141.24975 36156 ft 422 kts 204°
2026-04-29 13:24 38.38646 141.23982 36157 ft 422 kts 204°
2026-04-29 13:25 38.32835 141.22986 36158 ft 422 kts 204°
2026-04-29 13:25 38.24090 141.21496 36157 ft 421 kts 204°
2026-04-29 13:26 38.18298 141.20509 36159 ft 421 kts 204°
2026-04-29 13:26 38.12495 141.19521 36156 ft 421 kts 204°
2026-04-29 13:27 38.06695 141.18537 36162 ft 421 kts 204°
2026-04-29 13:27 38.00901 141.17554 36156 ft 420 kts 204°
2026-04-29 13:28 37.95095 141.16571 36144 ft 421 kts 203°
2026-04-29 13:28 37.92251 141.15907 36151 ft 406 kts 211°
2026-04-29 13:28 37.89593 141.14874 36163 ft 401 kts 213°
2026-04-29 13:29 37.84294 141.12695 36158 ft 402 kts 212°
2026-04-29 13:29 37.78940 141.10555 36160 ft 405 kts 212°
2026-04-29 13:30 37.73542 141.08424 36155 ft 407 kts 212°
2026-04-29 13:30 37.68123 141.06286 36148 ft 408 kts 212°
2026-04-29 13:31 37.62668 141.04137 36148 ft 409 kts 212°
2026-04-29 13:31 37.57266 141.02010 36145 ft 409 kts 212°
2026-04-29 13:32 37.51827 140.99872 36146 ft 410 kts 212°
2026-04-29 13:32 37.46383 140.97735 36133 ft 410 kts 212°
2026-04-29 13:33 37.41841 140.95955 36144 ft 409 kts 212°
2026-04-29 13:33 37.36407 140.93839 36131 ft 407 kts 212°
2026-04-29 13:34 37.30123 140.91399 36141 ft 406 kts 212°
2026-04-29 13:34 37.25603 140.89639 36142 ft 407 kts 211°
2026-04-29 13:35 37.20202 140.87544 36144 ft 408 kts 211°
2026-04-29 13:35 37.14755 140.85433 36132 ft 411 kts 211°
2026-04-29 13:36 37.09278 140.83316 36127 ft 413 kts 211°
2026-04-29 13:36 37.03809 140.81188 36122 ft 409 kts 214°
2026-04-29 13:37 37.01309 140.79665 36139 ft 388 kts 225°
2026-04-29 13:37 36.99141 140.77712 36114 ft 380 kts 231°
2026-04-29 13:37 36.95666 140.72991 36143 ft 366 kts 243°
2026-04-29 13:38 36.92768 140.67746 36128 ft 369 kts 243°
2026-04-29 13:38 36.89851 140.62471 36135 ft 371 kts 243°
2026-04-29 13:39 36.86901 140.57185 36141 ft 372 kts 243°
2026-04-29 13:39 36.83925 140.51870 36128 ft 373 kts 243°
2026-04-29 13:40 36.80947 140.46563 36140 ft 373 kts 243°
2026-04-29 13:40 36.77990 140.41297 36130 ft 373 kts 243°
2026-04-29 13:41 36.74988 140.35965 36120 ft 374 kts 243°
2026-04-29 13:41 36.72105 140.30636 36116 ft 373 kts 244°
2026-04-29 13:42 36.69271 140.25190 36112 ft 372 kts 244°
2026-04-29 13:42 36.66450 140.19795 36120 ft 372 kts 244°
2026-04-29 13:43 36.63621 140.14418 36116 ft 372 kts 244°
2026-04-29 13:43 36.60790 140.09048 36121 ft 372 kts 244°
2026-04-29 13:44 36.57943 140.03662 36112 ft 372 kts 244°
2026-04-29 13:44 36.55099 139.98291 36123 ft 372 kts 244°
2026-04-29 13:45 36.52256 139.92924 36126 ft 373 kts 244°
2026-04-29 13:45 36.49397 139.87541 36131 ft 374 kts 244°
2026-04-29 13:46 36.46420 139.82229 36131 ft 376 kts 241°
2026-04-29 13:46 36.43307 139.77011 36130 ft 377 kts 241°
2026-04-29 13:47 36.40210 139.71760 36125 ft 377 kts 242°
2026-04-29 13:47 36.37138 139.66511 36149 ft 376 kts 242°
2026-04-29 13:48 36.34045 139.61210 36139 ft 377 kts 242°
2026-04-29 13:48 36.30977 139.55957 36146 ft 376 kts 242°
2026-04-29 13:49 36.27909 139.50714 36147 ft 376 kts 242°
2026-04-29 13:49 36.24840 139.45477 36148 ft 376 kts 242°
2026-04-29 13:50 36.21771 139.40247 36149 ft 375 kts 242°
2026-04-29 13:50 36.18689 139.35005 36152 ft 375 kts 242°
2026-04-29 13:51 36.15841 139.29686 36152 ft 368 kts 249°
2026-04-29 13:51 36.13718 139.23976 36151 ft 366 kts 251°
2026-04-29 13:52 36.11597 139.18221 36158 ft 366 kts 251°
2026-04-29 13:52 36.09478 139.12517 36164 ft 366 kts 251°
2026-04-29 13:53 36.07349 139.06810 36157 ft 366 kts 251°
2026-04-29 13:53 36.05219 139.01110 36154 ft 365 kts 251°
2026-04-29 13:54 36.03094 138.95431 36160 ft 364 kts 251°
2026-04-29 13:54 36.00962 138.89748 36152 ft 364 kts 251°
2026-04-29 13:55 35.98831 138.84082 36159 ft 364 kts 251°
2026-04-29 13:55 35.96691 138.78402 36162 ft 370 kts 250°
2026-04-29 13:56 35.94511 138.72618 36131 ft 373 kts 250°
2026-04-29 13:56 35.92315 138.66811 36138 ft 374 kts 250°
2026-04-29 13:57 35.90103 138.60963 36161 ft 374 kts 250°
2026-04-29 13:57 35.87889 138.55142 36136 ft 376 kts 250°
2026-04-29 13:58 35.85682 138.49362 36147 ft 373 kts 250°
2026-04-29 13:58 35.83478 138.43601 36128 ft 368 kts 250°
2026-04-29 13:59 35.81307 138.37922 36137 ft 366 kts 251°
2026-04-29 13:59 35.79139 138.32267 36141 ft 366 kts 251°
2026-04-29 14:00 35.76967 138.26616 36118 ft 364 kts 251°
2026-04-29 14:00 35.74800 138.20988 36157 ft 365 kts 250°
2026-04-29 14:01 35.72608 138.15302 36101 ft 371 kts 250°
2026-04-29 14:01 35.70388 138.09556 36133 ft 373 kts 250°
2026-04-29 14:02 35.68153 138.03779 36120 ft 373 kts 250°
2026-04-29 14:02 35.65956 137.97999 36115 ft 374 kts 251°
2026-04-29 14:03 35.63855 137.92120 36105 ft 374 kts 252°
2026-04-29 14:03 35.61772 137.86289 36108 ft 371 kts 251°
2026-04-29 14:04 35.59706 137.80563 36117 ft 369 kts 251°
2026-04-29 14:04 35.57572 137.74821 36116 ft 370 kts 251°
2026-04-29 14:05 35.55387 137.69091 36114 ft 371 kts 250°
2026-04-29 14:05 35.53197 137.63343 36127 ft 372 kts 250°
2026-04-29 14:06 35.51008 137.57591 36104 ft 373 kts 250°
2026-04-29 14:06 35.48804 137.51798 36113 ft 374 kts 250°
2026-04-29 14:07 35.46604 137.46034 36113 ft 375 kts 250°
2026-04-29 14:07 35.44401 137.40217 36106 ft 375 kts 250°
2026-04-29 14:08 35.42208 137.34419 36114 ft 376 kts 250°
2026-04-29 14:08 35.39725 137.28774 36111 ft 384 kts 241°
2026-04-29 14:09 35.36215 137.23747 36105 ft 393 kts 233°
2026-04-29 14:09 35.31857 137.19617 35968 ft 393 kts 225°
2026-04-29 14:10 35.29603 137.17708 35499 ft 389 kts 225°
2026-04-29 14:10 35.27402 137.15847 34953 ft 388 kts 224°
2026-04-29 14:10 35.25186 137.13963 34469 ft 385 kts 224°
2026-04-29 14:10 35.23009 137.12109 34034 ft 381 kts 224°
2026-04-29 14:11 35.20835 137.10251 33572 ft 378 kts 224°
2026-04-29 14:11 35.18702 137.08423 33077 ft 376 kts 224°
2026-04-29 14:11 35.16815 137.06804 32619 ft 375 kts 224°
2026-04-29 14:11 35.14698 137.04988 32141 ft 373 kts 224°
2026-04-29 14:12 35.12575 137.03170 31652 ft 370 kts 223°
2026-04-29 14:12 35.10487 137.01382 31180 ft 369 kts 223°
2026-04-29 14:12 35.08401 136.99595 30688 ft 367 kts 223°
2026-04-29 14:12 35.06313 136.97808 30241 ft 365 kts 223°
2026-04-29 14:13 35.04231 136.96028 29807 ft 362 kts 223°
2026-04-29 14:13 35.02167 136.94266 29346 ft 359 kts 223°
2026-04-29 14:13 35.00142 136.92536 28840 ft 358 kts 223°
2026-04-29 14:13 34.98098 136.90792 28381 ft 355 kts 223°
2026-04-29 14:14 34.96093 136.89082 27960 ft 352 kts 223°
2026-04-29 14:14 34.94108 136.87390 27502 ft 350 kts 223°
2026-04-29 14:14 34.92114 136.85690 26871 ft 351 kts 223°
2026-04-29 14:14 34.90062 136.83933 25532 ft 370 kts 222°
2026-04-29 14:15 34.87997 136.82010 24217 ft 381 kts 229°
2026-04-29 14:15 34.86158 136.79696 23668 ft 374 kts 233°
2026-04-29 14:15 34.84571 136.77280 23266 ft 362 kts 239°
2026-04-29 14:15 34.83301 136.74656 22687 ft 356 kts 245°
2026-04-29 14:16 34.82146 136.71974 22073 ft 354 kts 245°
2026-04-29 14:16 34.81026 136.69351 21492 ft 351 kts 245°
2026-04-29 14:16 34.79894 136.66698 20940 ft 348 kts 245°
2026-04-29 14:16 34.78789 136.64121 20374 ft 345 kts 245°
2026-04-29 14:17 34.77674 136.61530 19830 ft 342 kts 245°
2026-04-29 14:17 34.76579 136.58992 19272 ft 340 kts 245°
2026-04-29 14:17 34.75547 136.56607 18748 ft 338 kts 245°
2026-04-29 14:17 34.74464 136.54107 18218 ft 335 kts 245°
2026-04-29 14:18 34.73375 136.51596 17674 ft 333 kts 245°
2026-04-29 14:18 34.72305 136.49132 17136 ft 331 kts 245°
2026-04-29 14:18 34.71224 136.46642 16526 ft 331 kts 244°
2026-04-29 14:18 34.70159 136.44191 15903 ft 332 kts 244°
2026-04-29 14:19 34.69076 136.41705 15321 ft 331 kts 244°
2026-04-29 14:19 34.67992 136.39217 14731 ft 331 kts 244°
2026-04-29 14:19 34.66922 136.36760 14162 ft 331 kts 244°
2026-04-29 14:19 34.65842 136.34284 13600 ft 331 kts 244°
2026-04-29 14:20 34.64772 136.31830 13024 ft 331 kts 244°
2026-04-29 14:20 34.63694 136.29359 12443 ft 330 kts 244°
2026-04-29 14:20 34.62629 136.26920 11873 ft 331 kts 244°
2026-04-29 14:20 34.61540 136.24430 11235 ft 333 kts 244°
2026-04-29 14:21 34.60461 136.21964 10987 ft 324 kts 244°
2026-04-29 14:21 34.59432 136.19619 10913 ft 311 kts 244°
2026-04-29 14:21 34.58586 136.17246 10798 ft 298 kts 256°
2026-04-29 14:21 34.58133 136.14872 10714 ft 286 kts 259°
2026-04-29 14:22 34.57731 136.12550 10627 ft 274 kts 260°
2026-04-29 14:22 34.57353 136.10362 10543 ft 262 kts 259°
2026-04-29 14:22 34.56974 136.08200 10180 ft 263 kts 259°
2026-04-29 14:22 34.56590 136.06032 9768 ft 266 kts 259°
2026-04-29 14:23 34.56196 136.03825 9504 ft 265 kts 259°
2026-04-29 14:23 34.55803 136.01641 9209 ft 265 kts 259°
2026-04-29 14:23 34.55412 135.99471 8837 ft 266 kts 259°
2026-04-29 14:23 34.55015 135.97265 8455 ft 267 kts 259°
2026-04-29 14:24 34.54610 135.95059 8090 ft 268 kts 259°
2026-04-29 14:24 34.54213 135.92895 7717 ft 261 kts 259°
2026-04-29 14:24 34.53853 135.90739 7338 ft 257 kts 266°
2026-04-29 14:24 34.54010 135.88639 6946 ft 250 kts 283°
2026-04-29 14:25 34.54518 135.86630 6584 ft 246 kts 288°
2026-04-29 14:25 34.54890 135.85335 6381 ft 243 kts 288°
2026-04-29 14:25 34.55438 135.83452 6248 ft 231 kts 288°
2026-04-29 14:25 34.55965 135.81623 6039 ft 226 kts 288°
2026-04-29 14:26 34.56480 135.79807 5493 ft 235 kts 288°
2026-04-29 14:26 34.57194 135.77260 4819 ft 240 kts 288°
2026-04-29 14:26 34.57717 135.75372 4440 ft 232 kts 289°
2026-04-29 14:26 34.58213 135.73588 4311 ft 217 kts 289°
2026-04-29 14:27 34.58677 135.71900 4213 ft 205 kts 289°
2026-04-29 14:27 34.58980 135.70813 4163 ft 197 kts 289°
2026-04-29 14:27 34.59393 135.69294 4101 ft 185 kts 290°
2026-04-29 14:28 34.60182 135.66415 4099 ft 174 kts 289°
2026-04-29 14:28 34.60822 135.65185 4139 ft 177 kts 316°
2026-04-29 14:28 34.61733 135.64165 4144 ft 175 kts 313°
2026-04-29 14:28 34.62579 135.63079 3987 ft 179 kts 313°
2026-04-29 14:29 34.63424 135.62020 3789 ft 176 kts 314°
2026-04-29 14:29 34.64270 135.60977 3580 ft 171 kts 314°
2026-04-29 14:29 34.65099 135.59962 3368 ft 169 kts 315°
2026-04-29 14:29 34.65923 135.58955 3155 ft 170 kts 315°
2026-04-29 14:30 34.66761 135.57936 2920 ft 169 kts 315°
2026-04-29 14:30 34.67594 135.56920 2690 ft 170 kts 314°
2026-04-29 14:30 34.68430 135.55894 2460 ft 172 kts 313°
2026-04-29 14:30 34.69292 135.54847 2238 ft 176 kts 313°
2026-04-29 14:31 34.70164 135.53783 1998 ft 180 kts 313°
2026-04-29 14:31 34.71054 135.52699 1749 ft 181 kts 313°
2026-04-29 14:31 34.71924 135.51641 1519 ft 177 kts 314°
2026-04-29 14:31 34.72789 135.50580 1299 ft 176 kts 315°
2026-04-29 14:32 34.73661 135.49522 1072 ft 176 kts 316°
2026-04-29 14:32 34.74515 135.48483 812 ft 172 kts 315°
2026-04-29 14:32 34.75356 135.47458 615 ft 170 kts 314°
2026-04-29 14:32 34.76146 135.46434 390 ft 163 kts 314°
2026-04-29 14:33 34.76931 135.45485 145 ft 153 kts 314°
2026-04-29 14:33 34.77654 135.44630 49 ft 137 kts 313°
2026-04-29 14:33 34.78216 135.43964 48 ft 53 kts 317°
2026-04-29 14:33 34.78406 135.43777 48 ft 34 kts 332°
2026-04-29 14:34 34.78551 135.43704 47 ft 21 kts 338°
2026-04-29 14:34 34.78685 135.43698 44 ft 12 kts 22°
2026-04-29 14:34 34.78712 135.43714 45 ft 4 kts 36°
2026-04-29 14:34 34.78736 135.43735 47 ft 4 kts 36°
2026-04-29 14:35 34.78761 135.43763 46 ft 6 kts 45°
2026-04-29 14:35 34.78794 135.43803 47 ft 8 kts 45°
2026-04-29 14:35 34.78838 135.43856 47 ft 10 kts 45°
2026-04-29 14:35 34.78888 135.43922 46 ft 11 kts 48°
2026-04-29 14:36 34.78954 135.43991 45 ft 13 kts 28°
2026-04-29 14:36 34.79014 135.44022 44 ft 7 kts 22°
2026-04-29 14:36 34.79025 135.44027 47 ft 0 kts 22°